CZ-6A DEB

Satellite information

Favourite Embed

Satellite Type and Status

DEBRISIN ORBIT

Key statistics

Satellite CZ-6A DEB at a glance.

Uptime

495

Days in orbit

Revolutions

≈ 14.3

Per day

Orbit

LEO

Low Earth Orbit

Inclination

88.6

Latest

Satellite identification and parameters

Extended collection of information and parameters for CZ-6A DEB.

Object identification

Identified? True

Debris? True

Object name: CZ-6A DEB

International designator: 2024-140PY

Object number (NORAD): 61130

Object ID (CCSDS): 61130

Country: PEOPLES REPUBLIC OF CHINA (PRC)

Current information (Y/N): Y

RCS size: SMALL

Orbital parameters

Period: 100.731 minutes

Inclination: 88.6179 deg

SMA: 7171.378 km

Apoapsis: 842.422 km

Periapsis: 744.064 km

RAAN: 273.0483 deg

Eccentricy: 0.00685769

Argument of periapsis: 345.7584 deg

Mean anomaly: 14.1676 deg

Mean motion: 14.2954843 rev/day

Mean motion (dot): 0.00009402 rev/day2

B* drag term: 0.0035781128 1/REarth

Two-line elements (TLE)

Creation date: Dec. 11, 2025, 10:54 a.m.

Reference frame: TEME

Reference center: EARTH

Epoch: Dec. 11, 2025, 6:54 a.m. UTC

TLE line 0: 0 CZ-6A DEB

TLE line 1: 1 61130U 24140PY 25345.28799019 .00009402 00000-0 35781-2 0 9997

TLE line 2: 2 61130 88.6179 273.0483 0068577 345.7584 14.1676 14.29548430 68007

Live tracking on map

Real-time ground track for satellite CZ-6A DEB.

In-orbit conjunctions

A list of the most updated potential collisions computed for object CZ-6A DEB.

Target Orbit TCA Probability of collision Miss distance Type
NOAA 16 DEB SSO 2025-03-17 03:28:18 0.0001072744 188.0 (m) DEBRIS
FENGYUN 1C DEB SSO 2025-03-10 05:57:34 0.0002567915 179.0 (m) DEBRIS
FENGYUN 1C DEB SSO 2025-02-13 19:17:48 0.0001001062 943.0 (m) DEBRIS
COSMOS 1867 COOLANT LEO 2024-11-26 07:58:30 0.0001708551 718.0 (m) DEBRIS
GEOSAT SSO 2024-10-14 20:52:20 0.0001059564 846.0 (m) PAYLOAD

Associated space launch

18 Low Earth Orbit communication satellites with Ku, Q and V band payloads for the G60 constellation operated by Shanghai Spacecom Satellite Technology (SSST) with funding backed by the Shanghai local government. Initial constellation will consist of 1296 satellites by 2027 with long term plans to expand it to 12000 satellites.

CZ-6A DEB was lifted into orbit during the mission ‘Long March 6A | G60 Polar Group 01’, on board a Long March 6A space rocket.

The launch took place on Aug. 6, 2024, 6:42 a.m. from Launch Complex 9A.

For more information about the launch, click the button.

Launch to space Long March 6A | G60 Polar Group 01
Long March 6A | G60 Polar Group 01

Agency: N/A

Status: Launch Successful

Launch date: Aug. 6, 2024, 6:42 a.m. UTC

Rocket: Long March 6A

Launch pad: Launch Complex 9A

Location: Taiyuan Satellite Launch Center, People's Republic of China

...

Latest news about this satellite

News about space launch
Brightness of first Chinese broadband constellation satellites alarms astronomers

The first satellites of a Chinese broadband constellation are significantly brighter than those of Western systems, posing a new challenge for astronomers.

News about space launch
Chinese rocket stage breaks up into cloud of more than 700 pieces of space debris

HELSINKI — A Chinese Long March 6A rocket’s upper stage has fragmented into a cloud of over 700 pieces of space debris, adding to concerns about long-term orbital safety. China […]

News about space launch
China's Thousand Sails Megaconstellation Kicks Off with Dangerous Debris Field

China's Thousand Sails Megaconstellation Kicks Off with Dangerous Debris Field


Newsletter sign-up

Weekly statistics, charts and insights to help you stay on top of the space industry.